Content
SEND FEEDBACK

Daily
Averages
Monthly
Summary
United States of America

BELLEVILLE, MICHIGAN


Home > North America > United States > Michigan
Elevation: 780 feet     Latitude: 42 14N     Longitude: 083 32W

WEATHER
 
SELECT A DAY
Number of Records: 202,932;   Date Range: 1/1/95 - 9/21/14
 
SHARE

PRINT THIS DATA

[ ← Previous Day ]
WEATHER ALMANAC - JULY 21, 2013
[ Next Day → ]
[ °C ]   °F
Weather ElementAverageHighLow
Temperature75.5 °F84.9 °F (3:53 pm)66 °F (5:53 am)
Dewpoint60 °F66 °F (8:53 pm)55 °F (7:53 am)
Humidity60.1 %81 % (1:53 am)38 % (3:53 pm)
Barometer29.96 in30.01 in (11:53 am)29.92 in (6:53 pm)
Wind Speed4.1 mph8.1 mph (2:53 am)
Weather ElementAverage
Visibility10 mi
Wind DirectionENE (53.5 °)

Weather ElementTotal
Precipitation---
Cooling Degree Days10.5 (Base 65)
Growing Degree Days25.5 (Base 50)
Averaged from 23 records on July 21, 2013
WEATHER CONDITIONS BREAKOUT
WIND DIRECTION BREAKOUT
WEATHER BY HOUR - JULY 21, 2013
[ °C ]   °F
Local TimeTemperatureDewpointHumidityBarometerVisibilityWind DirectionWind SpeedGust SpeedPrecipitationEventsConditions
1:53 AM70.0 °F64.0 °F81 %29.93 in10.0 miNE (50°)5.8 mph0.00 inClear
2:53 AM70.0 °F62.1 °F76 %29.93 in10.0 miNE (40°)8.1 mphClear
3:53 AM66.9 °F59.0 °F76 %29.93 in10.0 miNNE (30°)8.1 mphPartly Cloudy
4:53 AM66.9 °F57.9 °F73 %29.94 in10.0 miNE (40°)4.6 mphClear
5:53 AM66.0 °F57.0 °F73 %29.95 in10.0 miNNE (30°)4.6 mphClear
6:53 AM66.0 °F55.9 °F70 %29.97 in10.0 miNNE (20°)5.8 mphClear
7:53 AM66.9 °F55.0 °F66 %29.99 in10.0 miNNE (30°)4.6 mphClear
8:53 AM70.0 °F55.0 °F59 %29.99 in10.0 miNNE (30°)8.1 mphClear
9:53 AM75.0 °F57.0 °F53 %30.00 in10.0 miNE (40°)6.9 mphClear
10:53 AM77.0 °F57.9 °F52 %30.00 in10.0 miVariable3.5 mphClear
11:53 AM78.1 °F60.1 °F54 %30.01 in10.0 miCalmClear
12:53 PM81.0 °F61.0 °F50 %29.99 in10.0 miVariable3.5 mphClear
1:53 PM82.9 °F61.0 °F47 %29.98 in10.0 miNNW (330°)3.5 mphClear
2:53 PM82.9 °F60.1 °F46 %29.97 in10.0 miCalmClear
3:53 PM84.9 °F57.0 °F38 %29.96 in10.0 miCalmClear
4:53 PM82.9 °F59.0 °F44 %29.95 in10.0 miCalmPartly Cloudy
5:53 PM84.0 °F59.0 °F43 %29.93 in10.0 miCalmClear
6:53 PM84.9 °F59.0 °F41 %29.92 in10.0 miCalmClear
7:53 PM82.0 °F64.0 °F54 %29.92 in10.0 miEast (80°)5.8 mphClear
8:53 PM77.0 °F66.0 °F69 %29.94 in10.0 miESE (120°)5.8 mphPartly Cloudy
9:53 PM73.9 °F64.9 °F73 %29.95 in10.0 miSE (130°)4.6 mphClear
10:53 PM73.9 °F63.0 °F68 %29.96 in10.0 miSE (130°)5.8 mphClear
11:53 PM73.0 °F64.9 °F76 %29.96 in10.0 miSE (130°)4.6 mphClear
Hourly data recorded from KYIP, located miles away from Belleville, Michigan







STORIES FROM OUR PARTNERS